Home   Weather   San Buenaventura   Past weeks

Flag for USA Past Weather in San Buenaventura, California, USA — Yesterday and Last 2 Weeks

Now
66 °F

Overcast.


Feels Like: 66 °F
Forecast: 62 / 69 °F
Wind: 3 mph from Southeast

Location: Oxnard Airport

Current Time: Aug 21, 2017 at 1:33:08 am

Latest Report: Aug 21, 2017 at 12:51 am


Visibility: 10 mi

Pressure: 29.96 "Hg

Humidity: 73%

Dew Point: 57 °F

Location of San BuenaventuraLocation

Past Weather in San Buenaventura — Graph

°F

San Buenaventura Temperature Yesterday

Maximum temperature yesterday: 70 °F (at 1:51 pm)
Minimum temperature yesterday: 63 °F (at 12:51 am)
Average temperature yesterday: 66 °F

High & Low Weather Summary for the Past Weeks

 TemperatureHumidityPressure
High73 °F (Aug 8, 12:51 pm)100% (Aug 12, 1:51 am)30.02 "Hg (Aug 12, 1:51 am)
Low57 °F (Aug 16, 4:51 am)36% (Aug 20, 3:51 pm)29.80 "Hg (Aug 11, 6:51 pm)
Average65 °F84%29.91 "Hg
* Reported Aug 5 11:51 pm — Aug 20 11:51 pm, San Buenaventura. Weather by CustomWeather, © 2017

Note: Actual official high and low records may vary slightly from our data, if they occured in-between our weather recording intervals... More about our weather records

Advertising

San Buenaventura Weather History for the Previous 24 Hours

Scroll right to see more
 ConditionsComfort  
Time TempWeatherWind HumidityBarometerVisibility
11:51 pm
Sun, Aug 20
66 °FOvercast.6 mph75%29.96 "Hg10 mi
11:13 pm65 °FPassing clouds.3 mph81%29.96 "Hg10 mi
10:51 pm65 °FClear.3 mph81%29.95 "Hg10 mi
9:51 pm65 °FClear.No wind78%29.94 "Hg10 mi
8:51 pm66 °FClear.5 mph75%29.92 "Hg10 mi
7:51 pm66 °FClear.3 mph75%29.90 "Hg10 mi
6:51 pm67 °FSunny.7 mph71%29.88 "Hg10 mi
5:51 pm69 °FSunny.8 mph36%29.88 "Hg10 mi
4:51 pm68 °FSunny.8 mph47%29.88 "Hg10 mi
3:51 pm69 °FScattered clouds.12 mph36%29.89 "Hg10 mi
2:51 pm69 °FPartly sunny.12 mph59%29.90 "Hg10 mi
1:51 pm70 °FOvercast.9 mph61%29.92 "Hg10 mi
1:21 pm69 °FPartly sunny.9 mph63%29.94 "Hg10 mi
12:51 pm69 °FScattered clouds.10 mph66%29.93 "Hg10 mi
11:51 am69 °FScattered clouds.8 mph70%29.94 "Hg10 mi
10:51 am68 °FOvercast.7 mph65%29.95 "Hg10 mi
9:51 am67 °FOvercast.3 mph39%29.95 "Hg10 mi
8:51 am65 °FOvercast.3 mph52%29.95 "Hg10 mi
7:51 am64 °FOvercast.No wind56%29.94 "Hg10 mi
6:51 am64 °FOvercast.No wind81%29.93 "Hg10 mi
5:51 am63 °FOvercast.3 mph87%29.92 "Hg10 mi
5:16 am63 °FOvercast.3 mph84%29.92 "Hg10 mi
4:51 am63 °FOvercast.No wind68%29.92 "Hg10 mi
3:51 am63 °FOvercast.3 mph84%29.91 "Hg10 mi
2:51 am63 °FOvercast.5 mph87%29.92 "Hg10 mi
1:51 am63 °FOvercast.3 mph84%29.93 "Hg10 mi
Weather by CustomWeather, © 2017

See weather overviewHow to use our weather pages